Location: 10033 Water Well
(34.0865°N, 106.8959°W)
Time: 21:53:36
(UTC+00:00)

Meteor 1-22 Rocket - Pass Details

Date: 13 January 2026
Orbit: 787 x 938 km, 81.2° (Epoch: 10 February)

Event Time Altitude Azimuth Distance (km) Brightness Sun altitude
Rises 01:11:17 0° 349° (N) 3,431 7.3 -10.9°
Reaches altitude 10° 01:13:45 10° 348° (NNW) 2,469 6.6 -11.4°
Maximum altitude 01:19:18 75° 264° (W) 852 4.4 -12.5°
Drops below altitude 10° 01:24:38 10° 180° (S) 2,370 6.8 -13.5°
Sets 01:26:58 0° 178° (S) 3,284 7.5 -14.0°
